標題

[新車] CBR-150R(2016) v.s. msx-125

作者 bpt
看板 biker
時間 2017-03-11 00:02:28
《是否已閱讀置底文章『[新車] 2012主流車種比較』》 Yes 《是否至車行看過實車》 Yes 《欲比較之品牌及車種》 (1) Honda CBR-150R 2016 (2) Honda MSX-125 (3) KYMCO 酷龍150 (4) SYM T2 250(白牌) (5) 《車主需求》 ←請儘量詳細列舉以方便板友幫您建議 上班通勤為主, 每天通勤約40km, 約有一半路線是省道, 騎車以安全為主, 時速鮮少過100km/hr, 目前座駕為車齡超過20年的老野狼(改150), 騎乘經驗約七年, 希望新車能有相當的油耗表現並帶來騎乘樂趣 《預算範圍》 以上選項皆可接受新車價格, 但T2(白牌)似乎只能找二手 《補充說明》 目前偏好CBR-150R新車或MSX-125新車, 但本身178cm/80kg, 擔心MSX-125騎起來很彆扭, 打算再去一次車行實際跨坐看看來決定, 同時也想徵詢各位檔車前輩的經驗與心得作為參考, 謝謝 PS: 目前僅考慮白牌 -- ※ 發信站: 批踢踢實業坊(ptt.cc), 來自: 1.171.0.246 PTT 文章網址: https://www.ptt.cc/bbs/biker/M.1489161751.A.A61.html
1Fjames925757:如果是我 1、2會選一個 其他不考慮 03/11 00:08
2Fikariamman:2017 r15 03/11 00:09
3FCBTHSH:2手RS4 125呢? 03/11 00:10
4Fab1026430:M-SLAZ 03/11 00:13
5Ftraveler12:選1、2 然後再看身高 180騎msx整個很憋 03/11 00:24
6Fshuo19971203:MSX 03/11 00:28
7FCaseyStoner:CBR 250R 03/11 00:31
8Fjames925757:T2真心覺得醜 03/11 00:38
9Fcoppi:t250會騎起來比較不用一直拉轉 可是轉彎或跑山路的操控有點 03/11 00:45
10Fcoppi:笨拙 我可能會考慮CBR 150 或者存久一點上小忍者 ,r3,cbr25 03/11 00:45
11Fcoppi:0之類的... 03/11 00:45
12Fken7788441:GSR R150好像要出了 03/11 00:54
13Fkmunatural:https://www.youtube.com/watch?v=gJTFhC3j70s 03/11 00:56
14Fbpt:其實原本是只考慮MSX-125, 但考量到身材擔心騎姿不良會不舒服 03/11 00:58
15Fbpt:所以才又看到CBR-150R 03/11 00:59
16FJFernandez:R15也不錯 03/11 00:59
17FAoWsL:car 150正面看的確不錯,但尾燈車牌燈屁股讓我火整個熄滅 03/11 01:00
18FJFernandez:或是M-SLAZ 03/11 01:01
19Fcoppi:msx超過170就比較小台一點了... 03/11 01:06
20FAoWsL:CBR150R 手機打字錯誤 03/11 01:08
21Fshy801020:捏爆蛋蛋直上250rr (來亂 03/11 01:11
22Fsorkayi:1 拜託 不後悔 r3也可 03/11 01:11
23Fq212146223jh:忍250 03/11 01:19
24Fjames925757:不懂 貼T2跑賽道要幹嘛 原po又沒有要跑 03/11 01:36
25Fgundamhaha:等2017 R15吧,真心帥,配備還比R3好,但價格未知XDD 03/11 01:37
26Fgundamhaha:不想等的話就CBR150R或M-slaz 03/11 01:39
27Fflare321:二手小忍,有聲浪有馬力,二手便宜 03/11 01:43
28Fd93rmp:預算有到cbr150新車的話可以考慮二手小忍,騎乘樂趣上我認 03/11 01:57
29Fd93rmp:為小忍>CBR>T2>酷龍>msx 03/11 01:57
30Fd93rmp:雖然T2比起cbr有扭力優勢,但cbr引擎運轉精緻,保養換耗 03/11 01:57
31Fd93rmp:材價格也差不多 03/11 01:57
32Frewisyoung:選上面兩個 下面兩個完全不用考慮 03/11 02:26
33FFun2T:是我T2二手說不定過一陣子屁股癢會再升 03/11 02:35
34Fkillermei:我181/66騎MSX,坐姿覺得可,可是樓主應該是蠻魁,我也建 03/11 02:45
35Fkillermei:議標準size 的車型,除非真的很愛這樣的小車啦… 03/11 02:45
36Fwowasd0857:小黃蜂不錯 03/11 08:19
37Fab1026430:四缸保養貴鬆鬆 03/11 09:07
38Fcvsd04957:小黃蜂算了吧 都1X年車又是超高轉引擎 買到車況好的大 03/11 10:02
39Fcvsd04957:概跟中樂透差不多 重點是現在二手價還要10幾萬 03/11 10:04
40Fcuoice:不如買FTR223 或CRF250 03/11 11:01
41Ftigerface:預算可以國產不要考慮,msx身高170上下騎比較剛好,他 03/11 11:02
42Ftigerface:的騎乘感可以看13n那影片,我自己騎msx覺得他講的算是 03/11 11:02
43Ftigerface:蠻實在的,舒服的一台車 03/11 11:02
44Fa444498:誰提到t2跑賽道 我怎麼沒看到 03/11 11:16
45Fjames925757:13樓貼的影片 03/11 11:19
46Fwsx88432:等GSX s150 台鈴進口 有原場保養 03/11 11:46
47FAoWsL:km不是每次提到T2都貼嗎?… 03/11 12:05
48Fbmw530li:msx吧,加油算油耗很爽,也比較好脫手(? 03/11 12:18
49FElectricGT:以維修角度來說,MSX的零件取得難度較低... 03/11 12:47
50FElectricGT:CBR-150R目前零件取得管道還太少,和其他CBR零件通用的 03/11 12:49
51FElectricGT:廣泛度還無法確定,所以這兩台會首推 MSX 125 03/11 12:49
52FElectricGT:或是可以去找找 CBR-250R 03/11 12:52
53FYvern:個人推舊版cbr250 外型耐看又有質感 03/11 12:53
54FJokering5566:178騎msx 別了吧 看起來很bg 03/11 13:00
55Fgundamhaha:有裝備的話騎vino50都可以去跑賽道啊,真不知道有什 03/11 13:03
56Fgundamhaha:麼好貼的 03/11 13:03
57Fkiler520:MT15?msx以我半殘的身材來說都覺得有點小 03/11 14:06
58Fj10183:二手小忍啊 現在12-13應該有 03/11 14:34
59Fchapecs:推T2 跑山熱血聽夠的 現在二手價掉很低蠻划算的 03/11 15:00
60Fwinnie830925:R15不便宜吧XD 03/11 15:23
61Fctes940008:希望Yamaha可以佛心啊…… 03/11 15:25
62FJFernandez:考慮到CBR150了,R15也差不多 03/11 15:48
63Fsdg235:音叉有說今年會進r15? 03/11 16:08
64FBizcuit:二手R3滿便宜的啊XD 03/11 18:57
65Fmilkyway168:有進口車可以選就不會選國摻車 03/11 20:35
66Fbpt:剛才去看實車了,MSX-125的騎姿應該比較舒服,只是可能要坐 03/11 20:39
67Fbpt:比較後面 03/11 20:39
68Fbpt:外型則是CBR-150比較喜歡,只是它高轉高扭的特性不知道是否 03/11 20:40
69Fbpt:會造成通勤上的困擾 03/11 20:40
70Fsmashgdi:我175/52 騎msx 不會太憋 03/11 21:29
71Fremi511:推 MSX125! 03/12 10:23
72Fjohn123524:CBR要考慮後續維修保養的零件如何取得 03/12 10:42
73Fjohn123524:雖然聽說Honda不太會壞就是XD 03/12 10:42
74Fs21995303:我棄MSX選CBR 太愛那神殺造型 03/24 15:19
75FVoodooKid:HONDA是不會壞的 05/03 01:59
76Fs21995303:CBR 05/12 16:02